| time (UTC) | temp C | wind direction | speed KPH | gust KPH | rain 1hr cm | rain 24hr cm | rain mn cm | humidity % | barometer mb |
| 20260503005815 | 25 | 20 | 3.2 | 3.2 | 0.00 | 0.00 | 0.00 | 13 | 1014.7 |
| 20260503005313 | 25 | 29 | 8.0 | 12.9 | 0.00 | 0.00 | 0.00 | 13 | 1014.6 |
| 20260503004809 | 25 | 28 | 3.2 | 4.8 | 0.00 | 0.00 | 0.00 | 13 | 1014.6 |
| 20260503004306 | 25 | 7 | 6.4 | 6.4 | 0.00 | 0.00 | 0.00 | 13 | 1014.6 |
| 20260503003804 | 25 | 36 | 3.2 | 4.8 | 0.00 | 0.00 | 0.00 | 13 | 1014.6 |
| 20260503003300 | 25 | 20 | 3.2 | 3.2 | 0.00 | 0.00 | 0.00 | 13 | 1014.5 |
| 20260503002757 | 25 | 35 | 4.8 | 6.4 | 0.00 | 0.00 | 0.00 | 12 | 1014.4 |
| 20260503002254 | 25 | 7 | 3.2 | 4.8 | 0.00 | 0.00 | 0.00 | 12 | 1014.7 |
| 20260503001750 | 25 | 322 | 3.2 | 4.8 | 0.00 | 0.00 | 0.00 | 12 | 1014.6 |
| 20260503001247 | 25 | 9 | 4.8 | 4.8 | 0.00 | 0.00 | 0.00 | 12 | 1014.6 |
| 20260503000745 | 25 | 21 | 0.0 | 1.6 | 0.00 | 0.00 | 0.00 | 12 | 1014.6 |
| 20260503000242 | 25 | 7 | 3.2 | 3.2 | 0.00 | 0.00 | 0.00 | 12 | 1014.6 |
| 20260502235738 | 25 | 31 | 6.4 | 11.3 | 0.00 | 0.00 | 0.00 | 12 | 1014.8 |
| 20260502235237 | 25 | 350 | 4.8 | 6.4 | 0.00 | 0.00 | 0.00 | 11 | 1014.7 |
| 20260502234732 | 25 | 336 | 8.0 | 9.7 | 0.00 | 0.00 | 0.00 | 11 | 1014.9 |
| 20260502234230 | 25 | 16 | 1.6 | 1.6 | 0.00 | 0.00 | 0.00 | 12 | 1014.9 |
| 20260502233726 | 25 | 45 | 1.6 | 1.6 | 0.00 | 0.00 | 0.00 | 12 | 1014.8 |
| 20260502233223 | 25 | 21 | 0.0 | 1.6 | 0.00 | 0.00 | 0.00 | 11 | 1014.9 |
| 20260502232718 | 26 | 6 | 0.0 | 0.0 | 0.00 | 0.00 | 0.00 | 11 | 1015.0 |
| 20260502232216 | 25 | 30 | 1.6 | 3.2 | 0.00 | 0.00 | 0.00 | 11 | 1015.0 |
| 20260502231712 | 25 | 20 | 1.6 | 3.2 | 0.00 | 0.00 | 0.00 | 11 | 1014.9 |
| 20260502231210 | 25 | 38 | 3.2 | 6.4 | 0.00 | 0.00 | 0.00 | 11 | 1015.0 |
| 20260502230709 | 25 | 56 | 6.4 | 6.4 | 0.00 | 0.00 | 0.00 | 11 | 1014.9 |
| 20260502230207 | 25 | 34 | 0.0 | 0.0 | 0.00 | 0.00 | 0.00 | 11 | 1015.0 |
| 20260502225702 | 27 | 11 | 1.6 | 3.2 | 0.00 | 0.00 | 0.00 | 10 | 1015.1 |
| 20260502225200 | 26 | 38 | 0.0 | 0.0 | 0.00 | 0.00 | 0.00 | 10 | 1015.1 |
| 20260502224655 | 27 | 98 | 1.6 | 3.2 | 0.00 | 0.00 | 0.00 | 10 | 1015.5 |
| 20260502224152 | 26 | 67 | 1.6 | 3.2 | 0.00 | 0.00 | 0.00 | 11 | 1015.5 |
| 20260502223650 | 26 | 40 | 3.2 | 3.2 | 0.00 | 0.00 | 0.00 | 11 | 1015.6 |
| 20260502223148 | 26 | 75 | 1.6 | 3.2 | 0.00 | 0.00 | 0.00 | 11 | 1015.7 |
| 20260502222646 | 25 | 41 | 3.2 | 4.8 | 0.00 | 0.00 | 0.00 | 11 | 1015.6 |
| 20260502222142 | 26 | 58 | 1.6 | 1.6 | 0.00 | 0.00 | 0.00 | 11 | 1015.6 |
| 20260502221637 | 26 | 97 | 4.8 | 6.4 | 0.00 | 0.00 | 0.00 | 11 | 1015.9 |
| 20260502221135 | 26 | 60 | 3.2 | 3.2 | 0.00 | 0.00 | 0.00 | 10 | 1015.8 |
| 20260502220631 | 27 | 21 | 0.0 | 1.6 | 0.00 | 0.00 | 0.00 | 10 | 1015.8 |
| 20260502220127 | 26 | 29 | 0.0 | 0.0 | 0.00 | 0.00 | 0.00 | 10 | 1015.8 |
| 20260502215625 | 26 | 18 | 3.2 | 3.2 | 0.00 | 0.00 | 0.00 | 10 | 1016.1 |
| 20260502215121 | 27 | 95 | 4.8 | 4.8 | 0.00 | 0.00 | 0.00 | 10 | 1016.1 |
| 20260502214619 | 27 | 274 | 1.6 | 3.2 | 0.00 | 0.00 | 0.00 | 10 | 1016.2 |
| 20260502214116 | 27 | 343 | 1.6 | 3.2 | 0.00 | 0.00 | 0.00 | 10 | 1016.3 |
| 20260502213613 | 26 | 244 | 1.6 | 4.8 | 0.00 | 0.00 | 0.00 | 10 | 1016.6 |
| 20260502213110 | 26 | 45 | 1.6 | 3.2 | 0.00 | 0.00 | 0.00 | 10 | 1016.6 |
| 20260502212609 | 26 | 58 | 3.2 | 4.8 | 0.00 | 0.00 | 0.00 | 10 | 1016.6 |
| 20260502212107 | 25 | 75 | 6.4 | 9.7 | 0.00 | 0.00 | 0.00 | 10 | 1016.6 |
| 20260502211602 | 25 | 37 | 0.0 | 1.6 | 0.00 | 0.00 | 0.00 | 10 | 1016.7 |
| 20260502211059 | 25 | 57 | 6.4 | 9.7 | 0.00 | 0.00 | 0.00 | 10 | 1016.6 |
| 20260502210556 | 25 | 112 | 4.8 | 6.4 | 0.00 | 0.00 | 0.00 | 11 | 1016.8 |
| 20260502210054 | 25 | 61 | 1.6 | 3.2 | 0.00 | 0.00 | 0.00 | 11 | 1016.9 |
| 20260502205550 | 25 | 42 | 0.0 | 1.6 | 0.00 | 0.00 | 0.00 | 11 | 1016.9 |
| 20260502205047 | 25 | 126 | 11.3 | 14.5 | 0.00 | 0.00 | 0.00 | 12 | 1017.1 |
| 20260502204544 | 25 | 89 | 6.4 | 9.7 | 0.00 | 0.00 | 0.00 | 12 | 1017.0 |
| 20260502204042 | 25 | 84 | 3.2 | 3.2 | 0.00 | 0.00 | 0.00 | 13 | 1017.1 |
| 20260502203538 | 26 | 314 | 3.2 | 4.8 | 0.00 | 0.00 | 0.00 | 13 | 1017.1 |
| 20260502203035 | 26 | 359 | 1.6 | 3.2 | 0.00 | 0.00 | 0.00 | 13 | 1017.0 |
| 20260502202531 | 25 | 5 | 4.8 | 6.4 | 0.00 | 0.00 | 0.00 | 14 | 1017.3 |
| 20260502202030 | 25 | 162 | 11.3 | 12.9 | 0.00 | 0.00 | 0.00 | 14 | 1017.2 |
| 20260502201525 | 25 | 120 | 9.7 | 14.5 | 0.00 | 0.00 | 0.00 | 14 | 1017.2 |
| 20260502201022 | 25 | 175 | 6.4 | 11.3 | 0.00 | 0.00 | 0.00 | 12 | 1017.3 |
| 20260502200518 | 25 | 101 | 12.9 | 16.1 | 0.00 | 0.00 | 0.00 | 13 | 1017.2 |
| 20260502200016 | 25 | 93 | 9.7 | 12.9 | 0.00 | 0.00 | 0.00 | 12 | 1017.2 |
| 20260502195514 | 24 | 112 | 8.0 | 12.9 | 0.00 | 0.00 | 0.00 | 15 | 1017.4 |
| 20260502195009 | 24 | 80 | 8.0 | 11.3 | 0.00 | 0.00 | 0.00 | 16 | 1017.5 |
| 20260502194506 | 24 | 124 | 8.0 | 12.9 | 0.00 | 0.00 | 0.00 | 14 | 1017.5 |
| 20260502194002 | 24 | 228 | 11.3 | 14.5 | 0.00 | 0.00 | 0.00 | 14 | 1017.8 |
| 20260502193500 | 24 | 104 | 8.0 | 12.9 | 0.00 | 0.00 | 0.00 | 14 | 1017.5 |
| 20260502192955 | 24 | 160 | 8.0 | 11.3 | 0.00 | 0.00 | 0.00 | 14 | 1017.7 |
| 20260502192452 | 24 | 201 | 9.7 | 16.1 | 0.00 | 0.00 | 0.00 | 15 | 1018.0 |
| 20260502191949 | 25 | 88 | 6.4 | 11.3 | 0.00 | 0.00 | 0.00 | 16 | 1017.8 |
| 20260502191447 | 25 | 338 | 4.8 | 9.7 | 0.00 | 0.00 | 0.00 | 15 | 1017.9 |
| 20260502190944 | 24 | 120 | 9.7 | 11.3 | 0.00 | 0.00 | 0.00 | 15 | 1017.9 |
| 20260502190441 | 23 | 99 | 8.0 | 11.3 | 0.00 | 0.00 | 0.00 | 15 | 1018.1 |
| 20260502185938 | 23 | 353 | 3.2 | 6.4 | 0.00 | 0.00 | 0.00 | 16 | 1018.3 |
| 20260502185433 | 23 | 128 | 8.0 | 12.9 | 0.00 | 0.00 | 0.00 | 17 | 1018.1 |
| 20260502184930 | 23 | 195 | 6.4 | 11.3 | 0.00 | 0.00 | 0.00 | 17 | 1018.3 |
| 20260502184425 | 23 | 33 | 4.8 | 6.4 | 0.00 | 0.00 | 0.00 | 17 | 1018.5 |
| 20260502183922 | 23 | 89 | 12.9 | 16.1 | 0.00 | 0.00 | 0.00 | 16 | 1018.2 |
| 20260502183419 | 23 | 117 | 3.2 | 4.8 | 0.00 | 0.00 | 0.00 | 16 | 1018.3 |
| 20260502182914 | 23 | 144 | 8.0 | 9.7 | 0.00 | 0.00 | 0.00 | 14 | 1018.5 |
| 20260502182410 | 23 | 50 | 6.4 | 6.4 | 0.00 | 0.00 | 0.00 | 15 | 1018.6 |
| 20260502181906 | 23 | 123 | 4.8 | 4.8 | 0.00 | 0.00 | 0.00 | 15 | 1018.8 |
| 20260502181405 | 22 | 99 | 8.0 | 12.9 | 0.00 | 0.00 | 0.00 | 17 | 1018.8 |
| 20260502180903 | 22 | 99 | 4.8 | 4.8 | 0.00 | 0.00 | 0.00 | 17 | 1018.9 |
| 20260502180359 | 22 | 135 | 8.0 | 11.3 | 0.00 | 0.00 | 0.00 | 17 | 1018.5 |
| 20260502170318 | 21 | 114 | 6.4 | 6.4 | 0.00 | 0.00 | 0.00 | 23 | 1018.9 |
| 20260502164306 | 20 | 89 | 6.4 | 12.9 | 0.00 | 0.00 | 0.00 | 24 | 1019.2 |
| 20260502163801 | 19 | 54 | 9.7 | 14.5 | 0.00 | 0.00 | 0.00 | 25 | 1019.1 |
| 20260502163258 | 19 | 103 | 9.7 | 12.9 | 0.00 | 0.00 | 0.00 | 25 | 1019.0 |
| 20260502162755 | 18 | 132 | 9.7 | 16.1 | 0.00 | 0.00 | 0.00 | 26 | 1019.0 |
| 20260502162252 | 18 | 103 | 9.7 | 16.1 | 0.00 | 0.00 | 0.00 | 25 | 1019.2 |
| 20260502161749 | 17 | 166 | 6.4 | 9.7 | 0.00 | 0.00 | 0.00 | 26 | 1019.2 |
| 20260502161245 | 17 | 112 | 8.0 | 11.3 | 0.00 | 0.00 | 0.00 | 27 | 1019.3 |
| 20260502160743 | 16 | 75 | 3.2 | 3.2 | 0.00 | 0.00 | 0.00 | 30 | 1019.4 |
| 20260502160242 | 16 | 99 | 6.4 | 6.4 | 0.00 | 0.00 | 0.00 | 31 | 1019.5 |
| 20260502152212 | 12 | 65 | 6.4 | 6.4 | 0.00 | 0.00 | 0.00 | 38 | 1019.7 |
| 20260502151709 | 12 | 150 | 6.4 | 9.7 | 0.00 | 0.00 | 0.00 | 38 | 1019.7 |
| 20260502151206 | 12 | 83 | 8.0 | 11.3 | 0.00 | 0.00 | 0.00 | 39 | 1019.7 |
| 20260502150703 | 12 | 90 | 4.8 | 6.4 | 0.00 | 0.00 | 0.00 | 39 | 1019.7 |
| 20260502150159 | 12 | 90 | 4.8 | 6.4 | 0.00 | 0.00 | 0.00 | 39 | 1019.6 |
| 20260502140123 | 10 | 40 | 8.0 | 14.5 | 0.00 | 0.00 | 0.00 | 41 | 1019.7 |
| 20260502130548 | 11 | 52 | 3.2 | 6.4 | 0.00 | 0.00 | 0.00 | 34 | 1018.6 |
| 20260502123531 | 11 | 80 | 8.0 | 12.9 | 0.00 | 0.00 | 0.00 | 36 | 1018.8 |
| 20260502123028 | 10 | 113 | 9.7 | 12.9 | 0.00 | 0.00 | 0.00 | 37 | 1018.9 |
| 20260502122524 | 10 | 89 | 4.8 | 6.4 | 0.00 | 0.00 | 0.00 | 38 | 1018.9 |
| 20260502122022 | 10 | 116 | 9.7 | 12.9 | 0.00 | 0.00 | 0.00 | 38 | 1019.1 |
| 20260502121519 | 10 | 50 | 4.8 | 6.4 | 0.00 | 0.00 | 0.00 | 39 | 1019.0 |
| 20260502121017 | 10 | 177 | 3.2 | 3.2 | 0.00 | 0.00 | 0.00 | 39 | 1019.1 |
| 20260502120513 | 8 | 23 | 4.8 | 9.7 | 0.00 | 0.00 | 0.00 | 39 | 1018.6 |
| 20260502115508 | 8 | 358 | 0.0 | 0.0 | 0.00 | 0.00 | 0.00 | 44 | 1019.1 |
| 20260502115003 | 8 | 103 | 1.6 | 4.8 | 0.00 | 0.00 | 0.00 | 45 | 1019.0 |
| 20260502114500 | 7 | 67 | 0.0 | 1.6 | 0.00 | 0.00 | 0.00 | 47 | 1018.9 |
| 20260502113957 | 7 | 39 | 0.0 | 0.0 | 0.00 | 0.00 | 0.00 | 49 | 1018.9 |
| 20260502113454 | 7 | 26 | 0.0 | 0.0 | 0.00 | 0.00 | 0.00 | 49 | 1019.0 |
| 20260502112953 | 7 | 15 | 0.0 | 0.0 | 0.00 | 0.00 | 0.00 | 49 | 1019.1 |
| 20260502112450 | 7 | 38 | 1.6 | 1.6 | 0.00 | 0.00 | 0.00 | 49 | 1019.1 |
| 20260502111948 | 7 | 47 | 0.0 | 0.0 | 0.00 | 0.00 | 0.00 | 48 | 1019.0 |
| 20260502111445 | 7 | 11 | 0.0 | 0.0 | 0.00 | 0.00 | 0.00 | 48 | 1019.0 |
| 20260502110942 | 7 | 87 | 4.8 | 6.4 | 0.00 | 0.00 | 0.00 | 47 | 1019.1 |
| 20260502110440 | 8 | 45 | 1.6 | 1.6 | 0.00 | 0.00 | 0.00 | 47 | 1019.0 |
| 20260502105937 | 7 | 98 | 3.2 | 3.2 | 0.00 | 0.00 | 0.00 | 47 | 1019.1 |
| 20260502105434 | 7 | 34 | 0.0 | 0.0 | 0.00 | 0.00 | 0.00 | 48 | 1019.1 |
| 20260502104932 | 7 | 45 | 1.6 | 3.2 | 0.00 | 0.00 | 0.00 | 49 | 1019.1 |
| 20260502104429 | 7 | 21 | 0.0 | 1.6 | 0.00 | 0.00 | 0.00 | 50 | 1019.2 |
| 20260502103926 | 7 | 345 | 0.0 | 0.0 | 0.00 | 0.00 | 0.00 | 52 | 1019.3 |
| 20260502103424 | 7 | 357 | 1.6 | 1.6 | 0.00 | 0.00 | 0.00 | 52 | 1019.2 |
| 20260502102920 | 7 | 33 | 0.0 | 0.0 | 0.00 | 0.00 | 0.00 | 54 | 1019.0 |
| 20260502102417 | 7 | 33 | 0.0 | 0.0 | 0.00 | 0.00 | 0.00 | 52 | 1019.2 |
| 20260502101915 | 8 | 33 | 0.0 | 0.0 | 0.00 | 0.00 | 0.00 | 50 | 1019.0 |
| 20260502101413 | 8 | 33 | 0.0 | 0.0 | 0.00 | 0.00 | 0.00 | 48 | 1019.3 |
| 20260502100911 | 8 | 45 | 1.6 | 1.6 | 0.00 | 0.00 | 0.00 | 49 | 1019.3 |
| 20260502100410 | 8 | 30 | 0.0 | 0.0 | 0.00 | 0.00 | 0.00 | 48 | 1019.4 |
| 20260502091343 | 8 | 5 | 0.0 | 0.0 | 0.00 | 0.00 | 0.00 | 48 | 1019.3 |
| 20260502090841 | 8 | 1 | 0.0 | 1.6 | 0.00 | 0.00 | 0.00 | 49 | 1019.5 |
| 20260502090338 | 8 | 355 | 1.6 | 1.6 | 0.00 | 0.00 | 0.00 | 49 | 1019.5 |
| 20260502071233 | 10 | 21 | 0.0 | 0.0 | 0.00 | 0.00 | 0.00 | 44 | 1019.5 |
| 20260502070731 | 10 | 22 | 0.0 | 0.0 | 0.00 | 0.00 | 0.00 | 43 | 1019.6 |
| 20260502070228 | 10 | 17 | 0.0 | 0.0 | 0.00 | 0.00 | 0.00 | 44 | 1019.4 |
| 20260502065726 | 10 | 17 | 0.0 | 0.0 | 0.00 | 0.00 | 0.00 | 45 | 1019.4 |
| 20260502065224 | 10 | 17 | 0.0 | 1.6 | 0.00 | 0.00 | 0.00 | 45 | 1019.5 |
| 20260502064723 | 10 | 16 | 0.0 | 0.0 | 0.00 | 0.00 | 0.00 | 45 | 1019.5 |
| 20260502064220 | 10 | 16 | 0.0 | 0.0 | 0.00 | 0.00 | 0.00 | 45 | 1019.4 |
| 20260502063717 | 10 | 17 | 0.0 | 1.6 | 0.00 | 0.00 | 0.00 | 44 | 1019.5 |
| 20260502063215 | 10 | 15 | 1.6 | 1.6 | 0.00 | 0.00 | 0.00 | 44 | 1019.4 |
| 20260502062712 | 10 | 15 | 0.0 | 0.0 | 0.00 | 0.00 | 0.00 | 44 | 1019.6 |
| 20260502062209 | 11 | 16 | 0.0 | 0.0 | 0.00 | 0.00 | 0.00 | 43 | 1019.4 |
| 20260502061708 | 11 | 16 | 0.0 | 1.6 | 0.00 | 0.00 | 0.00 | 42 | 1019.7 |
| 20260502061205 | 11 | 18 | 0.0 | 1.6 | 0.00 | 0.00 | 0.00 | 42 | 1019.5 |
| 20260502060700 | 11 | 19 | 0.0 | 0.0 | 0.00 | 0.00 | 0.00 | 42 | 1019.5 |
| 20260502060151 | 11 | 18 | 1.6 | 1.6 | 0.00 | 0.00 | 0.00 | 41 | 1019.7 |
| 20260502055649 | 11 | 14 | 3.2 | 3.2 | 0.00 | 0.00 | 0.00 | 42 | 1019.5 |
| 20260502055147 | 11 | 15 | 3.2 | 3.2 | 0.00 | 0.00 | 0.00 | 42 | 1019.6 |
| 20260502054646 | 11 | 17 | 1.6 | 3.2 | 0.00 | 0.00 | 0.00 | 42 | 1019.7 |
| 20260502054143 | 11 | 13 | 0.0 | 0.0 | 0.00 | 0.00 | 0.00 | 42 | 1019.5 |
| 20260502053640 | 12 | 14 | 1.6 | 1.6 | 0.00 | 0.00 | 0.00 | 42 | 1019.6 |
| 20260502053137 | 12 | 24 | 0.0 | 1.6 | 0.00 | 0.00 | 0.00 | 41 | 1019.4 |
| 20260502052635 | 12 | 15 | 1.6 | 1.6 | 0.00 | 0.00 | 0.00 | 42 | 1019.4 |
| 20260502052133 | 12 | 14 | 3.2 | 3.2 | 0.00 | 0.00 | 0.00 | 42 | 1019.4 |
| 20260502051631 | 11 | 14 | 1.6 | 1.6 | 0.00 | 0.00 | 0.00 | 42 | 1019.4 |
| 20260502051129 | 11 | 18 | 3.2 | 3.2 | 0.00 | 0.00 | 0.00 | 43 | 1019.3 |
| 20260502050625 | 12 | 15 | 3.2 | 3.2 | 0.00 | 0.00 | 0.00 | 43 | 1019.6 |
| 20260502050122 | 12 | 29 | 3.2 | 3.2 | 0.00 | 0.00 | 0.00 | 42 | 1019.6 |
| 20260502045618 | 12 | 32 | 3.2 | 4.8 | 0.00 | 0.00 | 0.00 | 42 | 1019.5 |
| 20260502045115 | 12 | 22 | 4.8 | 4.8 | 0.00 | 0.00 | 0.00 | 42 | 1019.7 |
| 20260502044612 | 12 | 15 | 4.8 | 6.4 | 0.00 | 0.00 | 0.00 | 42 | 1019.5 |
| 20260502044109 | 12 | 20 | 1.6 | 1.6 | 0.00 | 0.00 | 0.00 | 42 | 1019.4 |
| 20260502043607 | 12 | 15 | 1.6 | 3.2 | 0.00 | 0.00 | 0.00 | 41 | 1019.5 |
| 20260502043103 | 12 | 16 | 1.6 | 1.6 | 0.00 | 0.00 | 0.00 | 42 | 1019.6 |
| 20260502042602 | 13 | 17 | 1.6 | 3.2 | 0.00 | 0.00 | 0.00 | 42 | 1019.4 |
| 20260502042100 | 13 | 24 | 0.0 | 0.0 | 0.00 | 0.00 | 0.00 | 42 | 1019.6 |
| 20260502041558 | 13 | 18 | 1.6 | 3.2 | 0.00 | 0.00 | 0.00 | 42 | 1019.3 |
| 20260502041054 | 13 | 12 | 0.0 | 1.6 | 0.00 | 0.00 | 0.00 | 41 | 1019.4 |
| 20260502040551 | 13 | 11 | 0.0 | 0.0 | 0.00 | 0.00 | 0.00 | 40 | 1019.3 |
| 20260502040048 | 14 | 16 | 1.6 | 3.2 | 0.00 | 0.00 | 0.00 | 39 | 1019.4 |
| 20260502035544 | 15 | 14 | 1.6 | 3.2 | 0.00 | 0.00 | 0.00 | 38 | 1019.3 |
| 20260502035042 | 15 | 14 | 1.6 | 3.2 | 0.00 | 0.00 | 0.00 | 37 | 1019.4 |
| 20260502034540 | 15 | 19 | 0.0 | 0.0 | 0.00 | 0.00 | 0.00 | 35 | 1019.2 |
| 20260502034038 | 15 | 19 | 0.0 | 0.0 | 0.00 | 0.00 | 0.00 | 32 | 1019.2 |
| 20260502033536 | 16 | 13 | 0.0 | 0.0 | 0.00 | 0.00 | 0.00 | 30 | 1019.2 |
| 20260502033033 | 16 | 12 | 0.0 | 0.0 | 0.00 | 0.00 | 0.00 | 28 | 1019.3 |
| 20260502032528 | 17 | 18 | 0.0 | 0.0 | 0.00 | 0.00 | 0.00 | 27 | 1019.1 |
| 20260502032026 | 17 | 18 | 0.0 | 0.0 | 0.00 | 0.00 | 0.00 | 26 | 1019.1 |
| 20260502031523 | 17 | 18 | 0.0 | 0.0 | 0.00 | 0.00 | 0.00 | 24 | 1019.1 |
| 20260502031021 | 17 | 18 | 0.0 | 0.0 | 0.00 | 0.00 | 0.00 | 23 | 1019.0 |
| 20260502030520 | 18 | 18 | 0.0 | 0.0 | 0.00 | 0.00 | 0.00 | 22 | 1019.0 |
| 20260502030017 | 18 | 1 | 0.0 | 0.0 | 0.00 | 0.00 | 0.00 | 20 | 1018.9 |
| 20260502025514 | 19 | 341 | 0.0 | 0.0 | 0.00 | 0.00 | 0.00 | 18 | 1019.0 |
| 20260502025012 | 20 | 341 | 0.0 | 0.0 | 0.00 | 0.00 | 0.00 | 18 | 1019.0 |
| 20260502024509 | 20 | 319 | 1.6 | 3.2 | 0.00 | 0.00 | 0.00 | 18 | 1019.1 |
| 20260502024008 | 20 | 340 | 1.6 | 1.6 | 0.00 | 0.00 | 0.00 | 18 | 1018.9 |
| 20260502023505 | 21 | 319 | 1.6 | 1.6 | 0.00 | 0.00 | 0.00 | 18 | 1018.9 |
| 20260502023002 | 21 | 327 | 1.6 | 1.6 | 0.00 | 0.00 | 0.00 | 17 | 1018.9 |
| 20260502022459 | 21 | 355 | 1.6 | 1.6 | 0.00 | 0.00 | 0.00 | 17 | 1018.8 |
| 20260502021956 | 21 | 341 | 1.6 | 1.6 | 0.00 | 0.00 | 0.00 | 17 | 1019.0 |
| 20260502021453 | 22 | 343 | 1.6 | 1.6 | 0.00 | 0.00 | 0.00 | 17 | 1019.0 |
| 20260502020950 | 22 | 344 | 1.6 | 3.2 | 0.00 | 0.00 | 0.00 | 17 | 1019.0 |
| 20260502020448 | 22 | 2 | 1.6 | 1.6 | 0.00 | 0.00 | 0.00 | 16 | 1018.8 |
| 20260502015944 | 22 | 319 | 1.6 | 1.6 | 0.00 | 0.00 | 0.00 | 16 | 1018.9 |
| 20260502015442 | 22 | 353 | 1.6 | 3.2 | 0.00 | 0.00 | 0.00 | 16 | 1018.8 |
| 20260502014939 | 23 | 321 | 0.0 | 1.6 | 0.00 | 0.00 | 0.00 | 15 | 1019.0 |
| 20260502014436 | 23 | 347 | 1.6 | 1.6 | 0.00 | 0.00 | 0.00 | 15 | 1018.9 |
| 20260502013932 | 23 | 198 | 1.6 | 3.2 | 0.00 | 0.00 | 0.00 | 16 | 1018.8 |
| 20260502013427 | 22 | 343 | 1.6 | 3.2 | 0.00 | 0.00 | 0.00 | 16 | 1019.0 |
| 20260502012924 | 23 | 25 | 0.0 | 0.0 | 0.00 | 0.00 | 0.00 | 15 | 1019.0 |
| 20260502012422 | 23 | 36 | 0.0 | 1.6 | 0.00 | 0.00 | 0.00 | 15 | 1019.0 |
| 20260502011919 | 23 | 18 | 0.0 | 0.0 | 0.00 | 0.00 | 0.00 | 15 | 1018.9 |
| 20260502011415 | 23 | 0 | 0.0 | 0.0 | 0.00 | 0.00 | 0.00 | 15 | 1019.0 |
| 20260502010913 | 24 | 357 | 0.0 | 1.6 | 0.00 | 0.00 | 0.00 | 15 | 1018.9 |
| 20260502010409 | 23 | 200 | 4.8 | 9.7 | 0.00 | 0.00 | 0.00 | 15 | 1018.9 |